Home   Weather   Harare   Past weeks

Flag for Zimbabwe Past Weather in Harare, Zimbabwe — Yesterday and Last 2 Weeks

Now
64 °F

Drizzle. Mostly cloudy.


Feels Like: 64 °F
Forecast: 60 / 71 °F
Wind: 8 mph from West

Location: Harare Kutsaga Airport

Current Time: Jan 19, 2017 at 7:05:18 pm

Latest Report: Jan 19, 2017 at 5:00 pm


Visibility: 2 mi

Pressure: 30.07 "Hg (25.25 "Hg at 1490m altitude)

Humidity: 100%

Dew Point: 64 °F

Location of HarareLocation

Past Weather in Harare — Graph

°F

Harare Temperature Yesterday

Maximum temperature yesterday: 66 °F (at 1:00 pm)
Minimum temperature yesterday: 59 °F (at 12:00 am)
Average temperature yesterday: 61 °F

High & Low Weather Summary for the Past Weeks

 TemperatureHumidityPressure
High81 °F (Jan 7, 2:00 pm)100% (Jan 4, 8:00 pm)30.39 "Hg (Jan 4, 8:00 pm)
Low59 °F (Jan 17, 10:00 pm)51% (Jan 14, 4:00 pm)29.89 "Hg (Jan 14, 3:00 pm)
Average68 °F91%30.07 "Hg
* Reported Jan 4 5:00 pm — Jan 19 5:00 pm, Harare, Weather by CustomWeather, © 2017

Note: Actual official high and low records may vary slightly from our data, if they occured in-between our weather recording intervals... More about our weather records

Advertising

Harare Weather History for the Previous 24 Hours

Scroll right to see more
 ConditionsComfort  
Time TempWeatherWind HumidityBarometerVisibility
5:00 pm
Thu, Jan 19
64 °FDrizzle. Mostly cloudy.8 mph100%30.07 "Hg2 mi
4:00 pm64 °FDrizzle. Mostly cloudy.7 mph100%30.07 "Hg1 mi
3:00 pm64 °FDrizzle. Mostly cloudy.9 mph100%30.07 "Hg1 mi
2:00 pm64 °FDrizzle. Mostly cloudy.8 mph100%30.09 "Hg2 mi
11:00 am64 °FDrizzle. Mostly cloudy.7 mph100%30.12 "Hg2 mi
10:00 am64 °FDrizzle. Mostly cloudy.8 mph100%30.15 "Hg2 mi
9:00 am64 °FDrizzle. Mostly cloudy.7 mph100%30.15 "Hg2 mi
8:00 am63 °FDrizzle. Mostly cloudy.7 mph100%30.15 "Hg2 mi
7:00 am63 °FDrizzle. Mostly cloudy.7 mph100%30.12 "Hg2 mi
5:00 am63 °FPassing clouds.7 mph100%30.09 "HgN/A
3:00 am63 °FPassing clouds.6 mph100%30.09 "HgN/A
2:00 am61 °FPassing clouds.7 mph100%30.09 "HgN/A
1:00 am61 °FPassing clouds.5 mph100%30.12 "HgN/A
12:00 am61 °FPassing clouds.7 mph100%30.15 "HgN/A
10:00 pm
Wed, Jan 18
61 °FPassing clouds.5 mph100%30.15 "HgN/A
9:00 pm61 °FPassing clouds.6 mph100%30.15 "HgN/A
8:00 pm61 °FDrizzle. Mostly cloudy.8 mph100%30.12 "Hg2 mi
Weather by CustomWeather, © 2017

See weather overviewHow to use our weather pages